Time,TemperatureF,DewpointF,PressureIn,WindDirection,WindDirectionDegrees,WindSpeedMPH,WindSpeedGustMPH,Humidity,HourlyPrecipIn,Conditions,Clouds,dailyrainin,SoftwareType,DateUTC
2013-09-04 00:01:00,64.2,60.2,30.06,SE,139,1.2,1.2,87,0.00,CLR,,0.00,WeatherDisplay:10.37,2013-09-04 05:01:00,
2013-09-04 00:06:00,64.1,60.2,30.06,SE,139,2.3,2.3,87,0.00,CLR,,0.00,WeatherDisplay:10.37,2013-09-04 05:06:00,
2013-09-04 00:11:00,64.2,60.2,30.06,SE,141,2.3,2.3,87,0.00,CLR,,0.00,WeatherDisplay:10.37,2013-09-04 05:11:00,
2013-09-04 00:17:00,63.9,59.6,30.06,SE,140,2.3,2.3,86,0.00,CLR,,0.00,WeatherDisplay:10.37,2013-09-04 05:17:00,
2013-09-04 00:22:00,63.5,59.6,30.06,SE,141,1.2,1.2,87,0.00,CLR,,0.00,WeatherDisplay:10.37,2013-09-04 05:22:00,
2013-09-04 00:27:00,63.3,59.7,30.06,SE,141,1.2,1.2,88,0.00,CLR,,0.00,WeatherDisplay:10.37,2013-09-04 05:27:00,
2013-09-04 00:32:00,63.2,59.6,30.06,SE,141,1.2,0.0,88,0.00,CLR,,0.00,WeatherDisplay:10.37,2013-09-04 05:32:00,
2013-09-04 00:37:00,63.0,59.7,30.06,SE,141,1.2,1.2,89,0.00,CLR,,0.00,WeatherDisplay:10.37,2013-09-04 05:37:00,
2013-09-04 00:42:00,63.0,59.7,30.06,SE,141,1.2,1.2,89,0.00,CLR,,0.00,WeatherDisplay:10.37,2013-09-04 05:42:00,
2013-09-04 00:47:00,62.9,59.6,30.06,SE,141,2.3,2.3,89,0.00,CLR,,0.00,WeatherDisplay:10.37,2013-09-04 05:47:00,
2013-09-04 00:52:00,63.0,59.7,30.07,SE,141,2.3,2.3,89,0.00,CLR,,0.00,WeatherDisplay:10.37,2013-09-04 05:52:00,
2013-09-04 00:57:00,63.1,59.8,30.07,SE,139,1.2,1.2,89,0.00,CLR,,0.00,WeatherDisplay:10.37,2013-09-04 05:57:00,
2013-09-04 01:02:00,63.1,59.8,30.07,SE,140,1.2,1.2,89,0.00,CLR,,0.00,WeatherDisplay:10.37,2013-09-04 06:02:00,
2013-09-04 01:07:00,63.2,59.9,30.07,SE,140,2.3,2.3,89,0.00,CLR,,0.00,WeatherDisplay:10.37,2013-09-04 06:07:00,
2013-09-04 01:12:00,63.2,59.9,30.07,SE,139,2.3,2.3,89,0.00,CLR,,0.00,WeatherDisplay:10.37,2013-09-04 06:12:00,
2013-09-04 01:17:00,63.1,59.8,30.07,SE,139,2.3,2.3,89,0.00,CLR,,0.00,WeatherDisplay:10.37,2013-09-04 06:17:00,
2013-09-04 01:22:00,63.1,59.8,30.07,SE,139,1.2,1.2,89,0.00,CLR,,0.00,WeatherDisplay:10.37,2013-09-04 06:22:00,
2013-09-04 01:27:00,63.0,59.7,30.07,SE,139,2.3,2.3,89,0.00,CLR,,0.00,WeatherDisplay:10.37,2013-09-04 06:27:00,
2013-09-04 01:32:00,63.0,59.7,30.07,SE,140,1.2,1.2,89,0.00,CLR,,0.00,WeatherDisplay:10.37,2013-09-04 06:32:00,
2013-09-04 01:37:00,62.8,59.5,30.07,SE,140,1.2,1.2,89,0.00,CLR,,0.00,WeatherDisplay:10.37,2013-09-04 06:37:00,
2013-09-04 01:42:00,62.6,59.3,30.07,SE,140,0.0,0.0,89,0.00,CLR,,0.00,WeatherDisplay:10.37,2013-09-04 06:42:00,
2013-09-04 01:47:00,62.5,59.5,30.07,SE,140,1.2,1.2,90,0.00,CLR,,0.00,WeatherDisplay:10.37,2013-09-04 06:47:00,
2013-09-04 01:52:00,62.3,59.0,30.07,SE,140,0.0,0.0,89,0.00,CLR,,0.00,WeatherDisplay:10.37,2013-09-04 06:52:00,
2013-09-04 01:57:00,62.1,59.1,30.07,SE,140,1.2,1.2,90,0.00,CLR,,0.00,WeatherDisplay:10.37,2013-09-04 06:57:00,
2013-09-04 02:02:00,61.9,58.9,30.07,SE,140,0.0,0.0,90,0.00,CLR,,0.00,WeatherDisplay:10.37,2013-09-04 07:02:00,
2013-09-04 02:07:00,61.8,59.1,30.07,SE,140,0.0,0.0,91,0.00,CLR,,0.00,WeatherDisplay:10.37,2013-09-04 07:07:00,
2013-09-04 02:12:00,61.8,59.5,30.07,SE,139,1.0,0.0,92,0.00,CLR,,0.00,WeatherDisplay:10.37,2013-09-04 07:12:00,
2013-09-04 02:17:00,61.8,59.5,30.07,SE,139,1.2,0.0,92,0.00,CLR,,0.00,WeatherDisplay:10.37,2013-09-04 07:17:00,
2013-09-04 02:22:00,62.0,59.6,30.07,SE,139,1.2,1.2,92,0.00,CLR,,0.00,WeatherDisplay:10.37,2013-09-04 07:22:00,
2013-09-04 02:27:00,62.1,59.7,30.07,SE,139,1.2,1.2,92,0.00,CLR,,0.00,WeatherDisplay:10.37,2013-09-04 07:27:00,
2013-09-04 02:32:00,62.2,59.5,30.07,SE,139,1.2,1.2,91,0.00,CLR,,0.00,WeatherDisplay:10.37,2013-09-04 07:32:00,
2013-09-04 02:37:00,62.4,59.7,30.07,SE,139,2.3,2.3,91,0.00,CLR,,0.00,WeatherDisplay:10.37,2013-09-04 07:37:00,
2013-09-04 02:42:00,62.6,59.9,30.07,SE,139,2.3,2.3,91,0.00,CLR,,0.00,WeatherDisplay:10.37,2013-09-04 07:42:00,
2013-09-04 02:47:00,62.8,59.8,30.08,SE,139,1.2,1.2,90,0.00,CLR,,0.00,WeatherDisplay:10.37,2013-09-04 07:47:00,
2013-09-04 02:52:00,63.0,60.0,30.08,SE,140,1.2,1.2,90,0.00,CLR,,0.00,WeatherDisplay:10.37,2013-09-04 07:52:00,
2013-09-04 02:57:00,63.1,60.1,30.08,SE,139,1.2,1.2,90,0.00,CLR,,0.00,WeatherDisplay:10.37,2013-09-04 07:57:00,
2013-09-04 03:02:00,63.2,60.2,30.08,SE,139,2.0,2.0,90,0.00,CLR,,0.00,WeatherDisplay:10.37,2013-09-04 08:02:00,
2013-09-04 03:07:00,63.2,60.2,30.08,SE,139,1.2,1.2,90,0.00,CLR,,0.00,WeatherDisplay:10.37,2013-09-04 08:07:00,
2013-09-04 03:12:00,63.2,60.2,30.08,SE,139,1.2,1.2,90,0.00,CLR,,0.00,WeatherDisplay:10.37,2013-09-04 08:12:00,
2013-09-04 03:17:00,63.2,60.2,30.08,SE,139,1.2,1.2,90,0.00,CLR,,0.00,WeatherDisplay:10.37,2013-09-04 08:17:00,
2013-09-04 03:22:00,63.1,59.8,30.09,SE,139,0.0,0.0,89,0.00,CLR,,0.00,WeatherDisplay:10.37,2013-09-04 08:22:00,
2013-09-04 03:27:00,63.1,60.1,30.09,SE,139,1.2,1.2,90,0.00,CLR,,0.00,WeatherDisplay:10.37,2013-09-04 08:27:00,
2013-09-04 03:32:00,63.2,60.2,30.09,SE,139,1.2,1.2,90,0.00,CLR,,0.00,WeatherDisplay:10.37,2013-09-04 08:32:00,
2013-09-04 03:37:00,63.3,60.3,30.09,SE,139,0.0,0.0,90,0.00,CLR,,0.00,WeatherDisplay:10.37,2013-09-04 08:37:00,
2013-09-04 03:42:00,63.4,60.4,30.09,SE,139,1.2,1.2,90,0.00,CLR,,0.00,WeatherDisplay:10.37,2013-09-04 08:42:00,
2013-09-04 03:47:00,63.5,60.5,30.09,SE,139,0.0,0.0,90,0.00,CLR,,0.00,WeatherDisplay:10.37,2013-09-04 08:47:00,
2013-09-04 03:52:00,63.5,60.5,30.09,SE,139,1.2,1.2,90,0.00,CLR,,0.00,WeatherDisplay:10.37,2013-09-04 08:52:00,
2013-09-04 03:57:00,63.4,60.4,30.09,SE,139,1.2,1.2,90,0.00,CLR,,0.00,WeatherDisplay:10.37,2013-09-04 08:57:00,
2013-09-04 04:02:00,63.4,60.1,30.09,SE,139,2.3,2.3,89,0.00,CLR,,0.00,WeatherDisplay:10.37,2013-09-04 09:02:00,
2013-09-04 04:07:00,63.2,59.9,30.09,SE,139,2.3,2.3,89,0.00,CLR,,0.00,WeatherDisplay:10.37,2013-09-04 09:07:00,
2013-09-04 04:12:00,63.0,59.7,30.09,SE,139,0.0,0.2,89,0.00,CLR,,0.00,WeatherDisplay:10.37,2013-09-04 09:12:00,
2013-09-04 04:17:00,62.9,59.9,30.09,SE,139,0.0,0.0,90,0.00,CLR,,0.00,WeatherDisplay:10.37,2013-09-04 09:17:00,
2013-09-04 04:22:00,62.7,59.7,30.09,SE,139,1.2,1.2,90,0.00,CLR,,0.00,WeatherDisplay:10.37,2013-09-04 09:22:00,
2013-09-04 04:27:00,62.6,59.6,30.09,SE,139,1.2,1.2,90,0.00,CLR,,0.00,WeatherDisplay:10.37,2013-09-04 09:27:00,
2013-09-04 04:32:00,62.4,59.7,30.09,SE,139,1.2,1.2,91,0.00,CLR,,0.00,WeatherDisplay:10.37,2013-09-04 09:32:00,
2013-09-04 04:37:00,62.3,59.6,30.09,SE,140,1.2,1.2,91,0.00,CLR,,0.00,WeatherDisplay:10.37,2013-09-04 09:37:00,
2013-09-04 04:42:00,62.3,59.6,30.09,SE,139,0.0,0.2,91,0.00,CLR,,0.00,WeatherDisplay:10.37,2013-09-04 09:42:00,
2013-09-04 04:47:00,62.3,59.6,30.09,SE,139,2.3,2.3,91,0.00,CLR,,0.00,WeatherDisplay:10.37,2013-09-04 09:47:00,
2013-09-04 04:52:00,62.3,59.6,30.09,SE,139,2.3,2.3,91,0.00,CLR,,0.00,WeatherDisplay:10.37,2013-09-04 09:52:00,
2013-09-04 04:57:00,62.2,59.5,30.09,SE,144,1.2,1.2,91,0.00,CLR,,0.00,WeatherDisplay:10.37,2013-09-04 09:57:00,
2013-09-04 05:02:00,62.2,59.5,30.09,SE,144,1.2,1.2,91,0.00,CLR,,0.00,WeatherDisplay:10.37,2013-09-04 10:02:00,
2013-09-04 05:07:00,62.2,59.5,30.09,SE,144,1.2,1.2,91,0.00,CLR,,0.00,WeatherDisplay:10.37,2013-09-04 10:07:00,
2013-09-04 05:13:00,62.2,59.5,30.09,SE,144,2.3,2.3,91,0.00,CLR,,0.00,WeatherDisplay:10.37,2013-09-04 10:13:00,
2013-09-04 05:18:00,62.1,59.4,30.09,SE,142,2.3,2.3,91,0.00,CLR,,0.00,WeatherDisplay:10.37,2013-09-04 10:18:00,
2013-09-04 05:23:00,62.0,59.3,30.09,SE,130,2.3,2.3,91,0.00,CLR,,0.00,WeatherDisplay:10.37,2013-09-04 10:23:00,
2013-09-04 05:28:00,62.0,59.6,30.09,SE,130,2.3,2.3,92,0.00,CLR,,0.00,WeatherDisplay:10.37,2013-09-04 10:28:00,
2013-09-04 05:33:00,61.9,59.5,30.09,SE,128,2.3,2.3,92,0.00,CLR,,0.00,WeatherDisplay:10.37,2013-09-04 10:33:00,
2013-09-04 05:38:00,62.0,59.6,30.09,SE,128,0.0,0.0,92,0.00,CLR,,0.00,WeatherDisplay:10.37,2013-09-04 10:38:00,
2013-09-04 05:43:00,62.1,59.7,30.09,SE,128,1.2,1.2,92,0.00,CLR,,0.00,WeatherDisplay:10.37,2013-09-04 10:43:00,
2013-09-04 05:48:00,62.3,59.9,30.09,SE,128,1.2,1.2,92,0.00,CLR,,0.00,WeatherDisplay:10.37,2013-09-04 10:48:00,
2013-09-04 05:53:00,62.5,59.8,30.10,SE,128,1.2,1.2,91,0.00,CLR,,0.00,WeatherDisplay:10.37,2013-09-04 10:53:00,
2013-09-04 05:58:00,62.6,59.9,30.10,SE,128,1.2,1.2,91,0.00,CLR,,0.00,WeatherDisplay:10.37,2013-09-04 10:58:00,
2013-09-04 06:03:00,62.7,60.0,30.10,SE,128,1.2,1.2,91,0.00,CLR,,0.00,WeatherDisplay:10.37,2013-09-04 11:03:00,
2013-09-04 06:08:00,62.7,60.0,30.11,SE,128,1.2,1.2,91,0.00,CLR,,0.00,WeatherDisplay:10.37,2013-09-04 11:08:00,
2013-09-04 06:13:00,62.7,59.7,30.11,SE,128,1.2,1.2,90,0.00,CLR,,0.00,WeatherDisplay:10.37,2013-09-04 11:13:00,
2013-09-04 06:18:00,62.8,59.8,30.11,SE,128,1.2,1.2,90,0.00,CLR,,0.00,WeatherDisplay:10.37,2013-09-04 11:18:00,
2013-09-04 06:23:00,62.9,59.9,30.11,SE,128,1.2,1.2,90,0.00,CLR,,0.00,WeatherDisplay:10.37,2013-09-04 11:23:00,
2013-09-04 06:28:00,62.9,59.9,30.11,SE,128,0.0,0.0,90,0.00,CLR,,0.00,WeatherDisplay:10.37,2013-09-04 11:28:00,
2013-09-04 06:33:00,62.9,60.2,30.12,SE,128,1.2,1.2,91,0.00,CLR,,0.00,WeatherDisplay:10.37,2013-09-04 11:33:00,
2013-09-04 06:38:00,62.9,60.2,30.12,SE,128,1.2,1.2,91,0.00,CLR,,0.00,WeatherDisplay:10.37,2013-09-04 11:38:00,
2013-09-04 06:43:00,63.0,60.3,30.12,SE,128,1.2,1.2,91,0.00,CLR,,0.00,WeatherDisplay:10.37,2013-09-04 11:43:00,
2013-09-04 06:48:00,63.0,60.0,30.12,SE,129,0.0,0.0,90,0.00,CLR,,0.00,WeatherDisplay:10.37,2013-09-04 11:48:00,
2013-09-04 06:53:00,63.0,60.3,30.13,SE,128,0.0,0.0,91,0.00,CLR,,0.00,WeatherDisplay:10.37,2013-09-04 11:53:00,
2013-09-04 06:58:00,63.1,60.4,30.13,SE,128,0.0,0.0,91,0.00,CLR,,0.00,WeatherDisplay:10.37,2013-09-04 11:58:00,
2013-09-04 07:03:00,63.1,60.1,30.14,SE,128,0.0,0.0,90,0.00,CLR,,0.00,WeatherDisplay:10.37,2013-09-04 12:03:00,
2013-09-04 07:08:00,63.1,60.1,30.14,SE,128,0.0,0.0,90,0.00,CLR,,0.00,WeatherDisplay:10.37,2013-09-04 12:08:00,
2013-09-04 07:13:00,63.2,60.5,30.14,SE,128,0.0,0.0,91,0.00,CLR,,0.00,WeatherDisplay:10.37,2013-09-04 12:13:00,
2013-09-04 07:18:00,63.2,60.5,30.15,SE,128,2.3,2.3,91,0.00,CLR,,0.00,WeatherDisplay:10.37,2013-09-04 12:18:00,
2013-09-04 07:23:00,63.1,60.4,30.15,SE,129,1.2,1.2,91,0.00,CLR,,0.00,WeatherDisplay:10.37,2013-09-04 12:23:00,
2013-09-04 07:28:00,63.1,60.7,30.15,SE,128,1.2,1.2,92,0.00,CLR,,0.00,WeatherDisplay:10.37,2013-09-04 12:28:00,
2013-09-04 07:33:00,63.1,60.4,30.15,SE,128,1.2,1.2,91,0.00,CLR,,0.00,WeatherDisplay:10.37,2013-09-04 12:33:00,
2013-09-04 07:38:00,63.2,60.5,30.14,SE,128,2.3,2.3,91,0.00,CLR,,0.00,WeatherDisplay:10.37,2013-09-04 12:38:00,
2013-09-04 07:43:00,63.4,60.7,30.14,SE,128,2.3,2.3,91,0.00,CLR,,0.00,WeatherDisplay:10.37,2013-09-04 12:43:00,
2013-09-04 07:48:00,63.4,60.7,30.15,SE,128,2.3,2.3,91,0.00,CLR,,0.00,WeatherDisplay:10.37,2013-09-04 12:48:00,
2013-09-04 07:53:00,63.4,60.7,30.15,SE,128,1.2,1.2,91,0.00,CLR,,0.00,WeatherDisplay:10.37,2013-09-04 12:53:00,
2013-09-04 07:58:00,63.5,61.1,30.15,SE,128,0.0,0.0,92,0.00,CLR,,0.00,WeatherDisplay:10.37,2013-09-04 12:58:00,
2013-09-04 08:03:00,63.7,61.0,30.15,SE,128,0.0,0.0,91,0.00,CLR,,0.00,WeatherDisplay:10.37,2013-09-04 13:03:00,
2013-09-04 08:08:00,64.0,60.7,30.15,SE,128,1.2,1.2,89,0.00,CLR,,0.00,WeatherDisplay:10.37,2013-09-04 13:08:00,
2013-09-04 08:13:00,64.4,60.8,30.15,SE,145,3.5,3.5,88,0.00,CLR,,0.00,WeatherDisplay:10.37,2013-09-04 13:13:00,
2013-09-04 08:18:00,64.7,61.1,30.16,SSE,151,2.3,2.3,88,0.00,CLR,,0.00,WeatherDisplay:10.37,2013-09-04 13:18:00,
2013-09-04 08:23:00,64.9,60.9,30.16,SSE,151,0.0,0.1,87,0.00,CLR,,0.00,WeatherDisplay:10.37,2013-09-04 13:23:00,
2013-09-04 08:28:00,65.1,61.1,30.16,SSE,151,1.2,0.0,87,0.00,CLR,,0.00,WeatherDisplay:10.37,2013-09-04 13:28:00,
2013-09-04 08:33:00,65.4,61.4,30.16,SSE,151,2.3,2.3,87,0.00,CLR,,0.00,WeatherDisplay:10.37,2013-09-04 13:33:00,
2013-09-04 08:38:00,65.7,61.7,30.16,SE,146,3.5,3.5,87,0.00,CLR,,0.00,WeatherDisplay:10.37,2013-09-04 13:38:00,
2013-09-04 08:43:00,65.8,62.1,30.16,SE,139,3.0,3.0,88,0.00,CLR,,0.00,WeatherDisplay:10.37,2013-09-04 13:43:00,
2013-09-04 08:48:00,65.9,62.2,30.16,SSE,150,3.5,3.5,88,0.00,CLR,,0.00,WeatherDisplay:10.37,2013-09-04 13:48:00,
2013-09-04 08:53:00,66.0,62.0,30.16,SE,134,1.2,1.2,87,0.00,CLR,,0.00,WeatherDisplay:10.37,2013-09-04 13:53:00,
2013-09-04 08:58:00,66.2,62.2,30.16,SE,133,1.2,1.2,87,0.00,CLR,,0.00,WeatherDisplay:10.37,2013-09-04 13:58:00,
2013-09-04 09:03:00,66.5,62.2,30.16,SE,134,2.3,2.3,86,0.00,CLR,,0.00,WeatherDisplay:10.37,2013-09-04 14:03:00,
2013-09-04 09:08:00,66.8,62.1,30.16,SSW,195,2.3,2.3,85,0.00,CLR,,0.00,WeatherDisplay:10.37,2013-09-04 14:08:00,
2013-09-04 09:13:00,67.2,62.2,30.16,SE,142,2.3,2.3,84,0.00,CLR,,0.00,WeatherDisplay:10.37,2013-09-04 14:13:00,
2013-09-04 09:18:00,67.5,62.5,30.16,SE,142,2.3,2.3,84,0.00,CLR,,0.00,WeatherDisplay:10.37,2013-09-04 14:18:00,
2013-09-04 09:23:00,67.7,62.0,30.16,SSE,147,2.3,2.3,82,0.00,CLR,,0.00,WeatherDisplay:10.37,2013-09-04 14:23:00,
2013-09-04 09:28:00,68.0,62.3,30.16,SE,145,2.3,2.3,82,0.00,CLR,,0.00,WeatherDisplay:10.37,2013-09-04 14:28:00,
2013-09-04 09:33:00,68.2,62.5,30.16,SSE,152,3.5,3.5,82,0.00,CLR,,0.00,WeatherDisplay:10.37,2013-09-04 14:33:00,
2013-09-04 09:38:00,68.5,63.1,30.16,SSE,154,2.3,2.3,83,0.00,CLR,,0.00,WeatherDisplay:10.37,2013-09-04 14:38:00,
2013-09-04 09:43:00,68.9,62.8,30.16,South,172,2.3,2.3,81,0.00,CLR,,0.00,WeatherDisplay:10.37,2013-09-04 14:43:00,
2013-09-04 09:48:00,69.4,63.7,30.16,SE,134,2.3,2.3,82,0.00,CLR,,0.00,WeatherDisplay:10.37,2013-09-04 14:48:00,
2013-09-04 09:53:00,69.8,63.3,30.16,SE,135,2.3,2.3,80,0.00,CLR,,0.00,WeatherDisplay:10.37,2013-09-04 14:53:00,
2013-09-04 09:58:00,70.3,63.1,30.16,SSE,158,2.3,2.3,78,0.00,CLR,,0.00,WeatherDisplay:10.37,2013-09-04 14:58:00,
2013-09-04 10:03:00,70.8,62.9,30.16,SE,139,3.5,3.5,76,0.00,CLR,,0.00,WeatherDisplay:10.37,2013-09-04 15:03:00,
2013-09-04 10:08:00,71.1,63.1,30.16,SE,145,3.5,3.5,76,0.00,CLR,,0.00,WeatherDisplay:10.37,2013-09-04 15:08:00,
2013-09-04 10:13:00,71.3,63.0,30.15,SSE,148,4.6,4.6,75,0.00,CLR,,0.00,WeatherDisplay:10.37,2013-09-04 15:13:00,
2013-09-04 10:18:00,71.4,63.1,30.16,SE,138,3.5,3.5,75,0.00,CLR,,0.00,WeatherDisplay:10.37,2013-09-04 15:18:00,
2013-09-04 10:23:00,71.5,62.8,30.16,SSE,159,5.8,5.8,74,0.00,CLR,,0.00,WeatherDisplay:10.37,2013-09-04 15:23:00,
2013-09-04 10:28:00,71.6,63.3,30.16,SE,134,2.3,2.3,75,0.00,CLR,,0.00,WeatherDisplay:10.37,2013-09-04 15:28:00,
2013-09-04 10:33:00,71.8,63.4,30.16,SSE,168,4.6,4.6,75,0.00,CLR,,0.00,WeatherDisplay:10.37,2013-09-04 15:33:00,
2013-09-04 10:38:00,72.0,63.6,30.16,SE,130,5.8,5.8,75,0.00,CLR,,0.00,WeatherDisplay:10.37,2013-09-04 15:38:00,
2013-09-04 10:43:00,72.0,64.0,30.15,SE,142,4.6,4.6,76,0.00,CLR,,0.00,WeatherDisplay:10.37,2013-09-04 15:43:00,
2013-09-04 10:49:00,72.0,64.0,30.15,ESE,112,6.9,6.9,76,0.00,CLR,,0.00,WeatherDisplay:10.37,2013-09-04 15:49:00,
2013-09-04 10:54:00,72.0,64.0,30.15,SE,134,3.5,3.5,76,0.00,CLR,,0.00,WeatherDisplay:10.37,2013-09-04 15:54:00,
2013-09-04 10:59:00,72.0,63.6,30.15,SE,126,6.9,6.9,75,0.00,CLR,,0.00,WeatherDisplay:10.37,2013-09-04 15:59:00,
2013-09-04 11:04:00,72.1,63.7,30.15,ESE,119,4.6,4.6,75,0.00,CLR,,0.00,WeatherDisplay:10.37,2013-09-04 16:04:00,
2013-09-04 11:09:00,72.4,64.4,30.15,SE,134,3.5,3.5,76,0.00,CLR,,0.00,WeatherDisplay:10.37,2013-09-04 16:09:00,
2013-09-04 11:14:00,72.8,64.0,30.15,SSE,167,6.0,6.0,74,0.00,CLR,,0.00,WeatherDisplay:10.37,2013-09-04 16:14:00,
2013-09-04 11:19:00,73.1,64.7,30.14,South,175,6.0,6.0,75,0.00,CLR,,0.00,WeatherDisplay:10.37,2013-09-04 16:19:00,
2013-09-04 11:24:00,73.4,64.6,30.14,SE,142,6.9,6.9,74,0.00,CLR,,0.00,WeatherDisplay:10.37,2013-09-04 16:24:00,
2013-09-04 11:29:00,73.7,64.9,30.14,SE,135,6.9,6.9,74,0.00,CLR,,0.00,WeatherDisplay:10.37,2013-09-04 16:29:00,
2013-09-04 11:34:00,73.9,64.7,30.14,SE,146,3.5,3.5,73,0.00,CLR,,0.00,WeatherDisplay:10.37,2013-09-04 16:34:00,
2013-09-04 11:39:00,74.2,64.6,30.14,SE,136,4.6,4.6,72,0.00,CLR,,0.00,WeatherDisplay:10.37,2013-09-04 16:39:00,
2013-09-04 11:44:00,74.3,64.3,30.14,SE,136,6.9,6.9,71,0.00,CLR,,0.00,WeatherDisplay:10.37,2013-09-04 16:44:00,
2013-09-04 11:49:00,74.5,64.9,30.14,ENE,63,3.5,3.5,72,0.00,CLR,,0.00,WeatherDisplay:10.37,2013-09-04 16:49:00,
2013-09-04 11:54:00,74.8,64.4,30.14,SE,134,4.6,4.6,70,0.00,CLR,,0.00,WeatherDisplay:10.37,2013-09-04 16:54:00,
2013-09-04 11:59:00,74.9,64.9,30.14,SSE,161,1.2,1.2,71,0.00,CLR,,0.00,WeatherDisplay:10.37,2013-09-04 16:59:00,
2013-09-04 12:04:00,75.1,64.2,30.14,SE,138,3.5,3.5,69,0.00,CLR,,0.00,WeatherDisplay:10.37,2013-09-04 17:04:00,
2013-09-04 12:09:00,75.2,64.3,30.15,SE,144,2.3,2.3,69,0.00,CLR,,0.00,WeatherDisplay:10.37,2013-09-04 17:09:00,
2013-09-04 12:14:00,75.4,64.1,30.15,SE,140,3.5,3.5,68,0.00,CLR,,0.00,WeatherDisplay:10.37,2013-09-04 17:14:00,
2013-09-04 12:19:00,75.5,64.6,30.15,SSE,159,3.5,3.5,69,0.00,CLR,,0.00,WeatherDisplay:10.37,2013-09-04 17:19:00,
2013-09-04 12:24:00,75.5,65.0,30.15,SE,130,2.3,2.3,70,0.00,CLR,,0.00,WeatherDisplay:10.37,2013-09-04 17:24:00,
2013-09-04 12:29:00,75.7,65.2,30.14,SE,140,2.3,2.3,70,0.00,CLR,,0.00,WeatherDisplay:10.37,2013-09-04 17:29:00,
2013-09-04 12:34:00,75.7,65.6,30.14,SE,125,3.5,3.5,71,0.00,CLR,,0.00,WeatherDisplay:10.37,2013-09-04 17:34:00,
2013-09-04 12:39:00,75.8,64.9,30.15,SSE,152,2.3,2.3,69,0.00,CLR,,0.00,WeatherDisplay:10.37,2013-09-04 17:39:00,
2013-09-04 12:44:00,76.0,65.5,30.15,SSE,147,3.5,3.5,70,0.00,CLR,,0.00,WeatherDisplay:10.37,2013-09-04 17:44:00,
2013-09-04 12:49:00,76.6,65.7,30.14,SE,138,4.6,4.6,69,0.00,CLR,,0.00,WeatherDisplay:10.37,2013-09-04 17:49:00,
2013-09-04 12:54:00,76.7,65.3,30.14,ESE,111,5.8,5.8,68,0.00,CLR,,0.00,WeatherDisplay:10.37,2013-09-04 17:54:00,
2013-09-04 12:59:00,76.7,65.3,30.14,SE,142,3.5,3.5,68,0.00,CLR,,0.00,WeatherDisplay:10.37,2013-09-04 17:59:00,
2013-09-04 13:04:00,76.7,65.3,30.14,SE,132,5.8,5.8,68,0.00,CLR,,0.00,WeatherDisplay:10.37,2013-09-04 18:04:00,
2013-09-04 13:09:00,77.3,65.9,30.13,SSE,153,3.5,3.5,68,0.00,CLR,,0.00,WeatherDisplay:10.37,2013-09-04 18:09:00,
2013-09-04 13:14:00,77.9,65.2,30.13,SSE,163,5.8,5.8,65,0.00,CLR,,0.00,WeatherDisplay:10.37,2013-09-04 18:14:00,
2013-09-04 13:19:00,78.0,65.3,30.13,SE,126,4.6,4.6,65,0.00,CLR,,0.00,WeatherDisplay:10.37,2013-09-04 18:19:00,
2013-09-04 13:24:00,78.6,65.4,30.13,SSE,159,8.1,8.1,64,0.00,CLR,,0.00,WeatherDisplay:10.37,2013-09-04 18:24:00,
2013-09-04 13:29:00,79.4,65.2,30.13,ESE,122,5.8,5.8,62,0.00,CLR,,0.00,WeatherDisplay:10.37,2013-09-04 18:29:00,
2013-09-04 13:34:00,80.1,65.4,30.13,ESE,114,4.0,4.0,61,0.00,CLR,,0.00,WeatherDisplay:10.37,2013-09-04 18:34:00,
2013-09-04 13:39:00,80.7,65.0,30.13,South,169,3.5,3.5,59,0.00,CLR,,0.00,WeatherDisplay:10.37,2013-09-04 18:39:00,
2013-09-04 13:44:00,81.3,65.6,30.13,SE,140,8.0,8.0,59,0.00,CLR,,0.00,WeatherDisplay:10.37,2013-09-04 18:44:00,
2013-09-04 13:49:00,82.0,64.2,30.12,SE,144,8.1,8.1,55,0.00,CLR,,0.00,WeatherDisplay:10.37,2013-09-04 18:49:00,
2013-09-04 13:54:00,82.1,64.8,30.12,SE,144,8.1,8.1,56,0.00,CLR,,0.00,WeatherDisplay:10.37,2013-09-04 18:54:00,
2013-09-04 13:59:00,82.3,65.0,30.12,ESE,121,3.5,3.9,56,0.00,CLR,,0.00,WeatherDisplay:10.37,2013-09-04 18:59:00,
2013-09-04 14:04:00,82.2,63.9,30.12,SSE,160,9.2,9.2,54,0.00,CLR,,0.00,WeatherDisplay:10.37,2013-09-04 19:04:00,
2013-09-04 14:09:00,81.7,64.5,30.12,ESE,109,8.1,8.1,56,0.00,CLR,,0.00,WeatherDisplay:10.37,2013-09-04 19:09:00,
2013-09-04 14:14:00,82.1,64.3,30.11,SE,140,8.0,8.0,55,0.00,CLR,,0.00,WeatherDisplay:10.37,2013-09-04 19:14:00,
2013-09-04 14:19:00,82.5,65.2,30.11,SE,131,6.9,6.9,56,0.00,CLR,,0.00,WeatherDisplay:10.37,2013-09-04 19:19:00,
2013-09-04 14:24:00,82.4,64.6,30.11,ENE,66,8.1,8.1,55,0.00,CLR,,0.00,WeatherDisplay:10.37,2013-09-04 19:24:00,
2013-09-04 14:29:00,82.6,64.8,30.11,SSE,159,10.4,10.4,55,0.00,CLR,,0.00,WeatherDisplay:10.37,2013-09-04 19:29:00,
2013-09-04 14:34:00,83.0,63.6,30.11,ESE,123,11.5,11.5,52,0.00,CLR,,0.00,WeatherDisplay:10.37,2013-09-04 19:34:00,
2013-09-04 14:39:00,82.8,64.5,30.10,SE,127,8.0,8.0,54,0.00,CLR,,0.00,WeatherDisplay:10.37,2013-09-04 19:39:00,
2013-09-04 14:44:00,82.5,63.6,30.10,South,173,8.1,8.1,53,0.00,CLR,,0.00,WeatherDisplay:10.37,2013-09-04 19:44:00,
2013-09-04 14:49:00,82.2,63.4,30.10,SSE,158,13.8,13.8,53,0.00,CLR,,0.00,WeatherDisplay:10.37,2013-09-04 19:49:00,
2013-09-04 14:54:00,82.2,64.4,30.10,SSE,148,5.8,5.8,55,0.00,CLR,,0.00,WeatherDisplay:10.37,2013-09-04 19:54:00,
2013-09-04 14:59:00,82.6,63.7,30.10,SE,134,11.5,11.5,53,0.00,CLR,,0.00,WeatherDisplay:10.37,2013-09-04 19:59:00,
2013-09-04 15:04:00,83.2,63.2,30.10,SE,144,11.5,11.5,51,0.00,CLR,,0.00,WeatherDisplay:10.37,2013-09-04 20:04:00,
2013-09-04 15:09:00,83.7,63.7,30.10,SE,129,11.5,11.5,51,0.00,CLR,,0.00,WeatherDisplay:10.37,2013-09-04 20:09:00,
2013-09-04 15:14:00,84.3,63.6,30.10,East,82,11.5,11.5,50,0.00,CLR,,0.00,WeatherDisplay:10.37,2013-09-04 20:14:00,
2013-09-04 15:19:00,84.4,63.7,30.10,SSE,147,9.2,9.2,50,0.00,CLR,,0.00,WeatherDisplay:10.37,2013-09-04 20:19:00,
2013-09-04 15:24:00,84.2,64.1,30.10,ESE,123,10.4,10.4,51,0.00,CLR,,0.00,WeatherDisplay:10.37,2013-09-04 20:24:00,
2013-09-04 15:29:00,84.6,65.0,30.10,SE,133,8.1,8.1,52,0.00,CLR,,0.00,WeatherDisplay:10.37,2013-09-04 20:29:00,
2013-09-04 15:34:00,85.0,63.7,30.10,SSE,155,7.0,7.0,49,0.00,CLR,,0.00,WeatherDisplay:10.37,2013-09-04 20:34:00,
2013-09-04 15:39:00,85.1,62.0,30.10,SE,129,13.8,13.8,46,0.00,CLR,,0.00,WeatherDisplay:10.37,2013-09-04 20:39:00,
2013-09-04 15:44:00,85.0,61.3,30.10,SE,141,10.0,10.0,45,0.00,CLR,,0.00,WeatherDisplay:10.37,2013-09-04 20:44:00,
2013-09-04 15:49:00,84.9,62.4,30.10,South,171,10.4,10.4,47,0.00,CLR,,0.00,WeatherDisplay:10.37,2013-09-04 20:49:00,
2013-09-04 15:54:00,85.1,62.6,30.10,SSE,157,14.0,14.0,47,0.00,CLR,,0.00,WeatherDisplay:10.37,2013-09-04 20:54:00,
2013-09-04 15:59:00,85.2,59.5,30.10,SE,132,10.4,10.4,42,0.00,CLR,,0.00,WeatherDisplay:10.37,2013-09-04 20:59:00,
2013-09-04 16:04:00,85.4,59.0,30.10,ESE,108,8.0,8.0,41,0.00,CLR,,0.00,WeatherDisplay:10.37,2013-09-04 21:04:00,
2013-09-04 16:09:00,85.3,60.3,30.10,SE,128,5.0,5.0,43,0.00,CLR,,0.00,WeatherDisplay:10.37,2013-09-04 21:09:00,
2013-09-04 16:15:00,85.4,59.0,30.10,SE,141,7.0,15.0,41,0.00,CLR,,0.00,WeatherDisplay:10.37,2013-09-04 21:15:00,
2013-09-04 16:20:00,85.2,58.2,30.10,SE,139,6.0,14.0,40,0.00,CLR,,0.00,WeatherDisplay:10.37,2013-09-04 21:20:00,
2013-09-04 16:25:00,85.1,57.4,30.10,SSE,159,8.1,8.1,39,0.00,CLR,,0.00,WeatherDisplay:10.37,2013-09-04 21:25:00,
2013-09-04 16:30:00,85.0,57.3,30.10,SSE,148,7.0,13.0,39,0.00,CLR,,0.00,WeatherDisplay:10.37,2013-09-04 21:30:00,
2013-09-04 16:34:00,85.1,59.4,30.09,SE,128,8.1,8.1,42,0.00,CLR,,0.00,WeatherDisplay:10.37,2013-09-04 21:34:00,
2013-09-04 16:40:00,85.0,60.0,30.09,ESE,120,11.5,11.5,43,0.00,CLR,,0.00,WeatherDisplay:10.37,2013-09-04 21:40:00,
2013-09-04 16:45:00,85.1,60.7,30.09,SE,139,3.0,10.0,44,0.00,CLR,,0.00,WeatherDisplay:10.37,2013-09-04 21:45:00,
2013-09-04 16:50:00,85.3,60.2,30.09,SE,135,5.0,9.0,43,0.00,CLR,,0.00,WeatherDisplay:10.37,2013-09-04 21:50:00,
2013-09-04 16:55:00,85.3,60.9,30.09,SE,135,2.0,8.0,44,0.00,CLR,,0.00,WeatherDisplay:10.37,2013-09-04 21:55:00,
2013-09-04 16:59:00,85.2,61.5,30.09,SE,139,5.0,10.0,45,0.00,CLR,,0.00,WeatherDisplay:10.37,2013-09-04 21:59:00,
2013-09-04 17:04:00,84.5,60.8,30.09,SSE,160,10.4,10.4,45,0.00,CLR,,0.00,WeatherDisplay:10.37,2013-09-04 22:04:00,
2013-09-04 17:10:00,84.0,61.0,30.09,SE,134,8.1,8.1,46,0.00,CLR,,0.00,WeatherDisplay:10.37,2013-09-04 22:10:00,
2013-09-04 17:15:00,83.6,61.2,30.09,SE,140,3.0,9.0,47,0.00,CLR,,0.00,WeatherDisplay:10.37,2013-09-04 22:15:00,
2013-09-04 17:19:00,83.4,62.2,30.09,SE,143,3.5,3.5,49,0.00,CLR,,0.00,WeatherDisplay:10.37,2013-09-04 22:19:00,
2013-09-04 17:25:00,83.5,61.7,30.09,SE,137,2.0,6.0,48,0.00,CLR,,0.00,WeatherDisplay:10.37,2013-09-04 22:25:00,
2013-09-04 17:30:00,83.4,62.3,30.09,SSE,147,1.0,5.0,49,0.00,CLR,,0.00,WeatherDisplay:10.37,2013-09-04 22:30:00,
2013-09-04 17:34:00,83.4,62.8,30.09,SSE,156,2.3,2.9,50,0.00,CLR,,0.00,WeatherDisplay:10.37,2013-09-04 22:34:00,
2013-09-04 17:39:00,83.6,61.8,30.09,SE,128,3.5,4.1,48,0.00,CLR,,0.00,WeatherDisplay:10.37,2013-09-04 22:39:00,
2013-09-04 17:44:00,83.8,62.0,30.09,SE,134,3.5,3.5,48,0.00,CLR,,0.00,WeatherDisplay:10.37,2013-09-04 22:44:00,
2013-09-04 17:50:00,83.9,61.5,30.09,SSE,156,8.1,8.1,47,0.00,CLR,,0.00,WeatherDisplay:10.37,2013-09-04 22:50:00,
2013-09-04 17:55:00,84.0,61.6,30.09,SE,137,3.0,7.0,47,0.00,CLR,,0.00,WeatherDisplay:10.37,2013-09-04 22:55:00,
2013-09-04 17:59:00,84.1,61.7,30.09,SE,128,10.0,10.0,47,0.00,CLR,,0.00,WeatherDisplay:10.37,2013-09-04 22:59:00,
2013-09-04 18:05:00,84.0,62.2,30.09,SE,139,3.0,9.0,48,0.00,CLR,,0.00,WeatherDisplay:10.37,2013-09-04 23:05:00,
2013-09-04 18:10:00,84.0,61.6,30.09,SE,141,6.0,9.0,47,0.00,CLR,,0.00,WeatherDisplay:10.37,2013-09-04 23:10:00,
2013-09-04 18:14:00,83.9,60.9,30.09,SSE,151,6.9,6.9,46,0.00,CLR,,0.00,WeatherDisplay:10.37,2013-09-04 23:14:00,
2013-09-04 18:20:00,83.8,61.4,30.09,SE,142,2.0,6.0,47,0.00,CLR,,0.00,WeatherDisplay:10.37,2013-09-04 23:20:00,
2013-09-04 18:25:00,83.7,61.9,30.09,SSE,147,5.0,8.0,48,0.00,CLR,,0.00,WeatherDisplay:10.37,2013-09-04 23:25:00,
2013-09-04 18:29:00,83.4,61.1,30.09,SE,138,4.6,4.6,47,0.00,CLR,,0.00,WeatherDisplay:10.37,2013-09-04 23:29:00,
2013-09-04 18:35:00,83.1,59.6,30.09,SSE,161,3.5,3.5,45,0.00,CLR,,0.00,WeatherDisplay:10.37,2013-09-04 23:35:00,
2013-09-04 18:40:00,82.8,58.7,30.09,SE,133,5.8,5.8,44,0.00,CLR,,0.00,WeatherDisplay:10.37,2013-09-04 23:40:00,
2013-09-04 18:45:00,82.5,58.4,30.09,SE,146,2.3,2.3,44,0.00,CLR,,0.00,WeatherDisplay:10.37,2013-09-04 23:45:00,
2013-09-04 18:50:00,82.2,59.4,30.09,SSE,147,2.3,2.3,46,0.00,CLR,,0.00,WeatherDisplay:10.37,2013-09-04 23:50:00,
2013-09-04 18:55:00,81.8,59.0,30.09,SSE,160,3.5,3.5,46,0.00,CLR,,0.00,WeatherDisplay:10.37,2013-09-04 23:55:00,
2013-09-04 19:00:00,81.3,58.5,30.09,SE,132,3.5,3.5,46,0.00,CLR,,0.00,WeatherDisplay:10.37,2013-09-05 00:00:00,
2013-09-04 19:05:00,80.9,58.8,30.09,SE,134,2.3,2.3,47,0.00,CLR,,0.00,WeatherDisplay:10.37,2013-09-05 00:05:00,
2013-09-04 19:10:00,80.5,58.4,30.09,SSE,159,3.5,3.5,47,0.00,CLR,,0.00,WeatherDisplay:10.37,2013-09-05 00:10:00,
2013-09-04 19:15:00,80.0,59.1,30.09,SSE,159,2.3,2.3,49,0.00,CLR,,0.00,WeatherDisplay:10.37,2013-09-05 00:15:00,
2013-09-04 19:20:00,79.6,59.3,30.09,SSE,159,1.2,1.2,50,0.00,CLR,,0.00,WeatherDisplay:10.37,2013-09-05 00:20:00,
2013-09-04 19:25:00,79.3,60.1,30.09,SSE,159,0.0,0.0,52,0.00,CLR,,0.00,WeatherDisplay:10.37,2013-09-05 00:25:00,
2013-09-04 19:30:00,78.9,59.8,30.09,SSE,159,0.0,0.0,52,0.00,CLR,,0.00,WeatherDisplay:10.37,2013-09-05 00:30:00,
2013-09-04 19:35:00,78.6,60.0,30.09,SSE,159,0.0,0.0,53,0.00,CLR,,0.00,WeatherDisplay:10.37,2013-09-05 00:35:00,
2013-09-04 19:40:00,78.0,59.5,30.09,SSE,159,1.2,1.2,53,0.00,CLR,,0.00,WeatherDisplay:10.37,2013-09-05 00:40:00,
2013-09-04 19:45:00,77.5,59.5,30.09,SSE,159,0.0,0.0,54,0.00,CLR,,0.00,WeatherDisplay:10.37,2013-09-05 00:45:00,
2013-09-04 19:50:00,77.0,60.1,30.10,SSE,159,0.0,0.0,56,0.00,CLR,,0.00,WeatherDisplay:10.37,2013-09-05 00:50:00,
2013-09-04 19:55:00,76.6,60.2,30.09,SSE,159,0.0,0.0,57,0.00,CLR,,0.00,WeatherDisplay:10.37,2013-09-05 00:55:00,
2013-09-04 20:00:00,76.1,60.7,30.10,SSE,159,0.0,0.0,59,0.00,CLR,,0.00,WeatherDisplay:10.37,2013-09-05 01:00:00,
2013-09-04 20:05:00,75.4,61.9,30.09,SSE,159,2.3,2.3,63,0.00,CLR,,0.00,WeatherDisplay:10.37,2013-09-05 01:05:00,
2013-09-04 20:10:00,74.8,62.2,30.10,SSE,159,1.2,1.2,65,0.00,CLR,,0.00,WeatherDisplay:10.37,2013-09-05 01:10:00,
2013-09-04 20:15:00,74.3,62.6,30.10,SSE,159,1.2,1.2,67,0.00,CLR,,0.00,WeatherDisplay:10.37,2013-09-05 01:15:00,
2013-09-04 20:20:00,73.9,62.7,30.10,SSE,159,2.3,2.3,68,0.00,CLR,,0.00,WeatherDisplay:10.37,2013-09-05 01:20:00,
2013-09-04 20:25:00,73.5,62.7,30.10,SSE,159,2.3,2.3,69,0.00,CLR,,0.00,WeatherDisplay:10.37,2013-09-05 01:25:00,
2013-09-04 20:30:00,73.2,63.2,30.11,SSE,159,2.3,2.3,71,0.00,CLR,,0.00,WeatherDisplay:10.37,2013-09-05 01:30:00,
2013-09-04 20:35:00,72.9,62.9,30.11,SSE,159,1.2,1.2,71,0.00,CLR,,0.00,WeatherDisplay:10.37,2013-09-05 01:35:00,
2013-09-04 20:40:00,72.7,63.1,30.11,SSE,159,1.2,1.2,72,0.00,CLR,,0.00,WeatherDisplay:10.37,2013-09-05 01:40:00,
2013-09-04 20:45:00,72.6,63.1,30.11,SSE,159,1.2,1.2,72,0.00,CLR,,0.00,WeatherDisplay:10.37,2013-09-05 01:45:00,
2013-09-04 20:50:00,72.5,63.0,30.11,SSE,159,2.3,2.3,72,0.00,CLR,,0.00,WeatherDisplay:10.37,2013-09-05 01:50:00,
2013-09-04 20:55:00,72.4,62.9,30.12,SSE,159,1.2,1.2,72,0.00,CLR,,0.00,WeatherDisplay:10.37,2013-09-05 01:55:00,
2013-09-04 21:00:00,72.3,62.8,30.12,SSE,159,1.2,1.2,72,0.00,CLR,,0.00,WeatherDisplay:10.37,2013-09-05 02:00:00,
2013-09-04 21:05:00,72.2,63.1,30.12,SSE,159,1.2,1.2,73,0.00,CLR,,0.00,WeatherDisplay:10.37,2013-09-05 02:05:00,
2013-09-04 21:10:00,72.0,62.9,30.12,SSE,159,1.2,1.2,73,0.00,CLR,,0.00,WeatherDisplay:10.37,2013-09-05 02:10:00,
2013-09-04 21:15:00,71.9,62.8,30.12,SSE,159,2.3,2.3,73,0.00,CLR,,0.00,WeatherDisplay:10.37,2013-09-05 02:15:00,
2013-09-04 21:20:00,71.8,63.1,30.12,SSE,159,2.3,2.3,74,0.00,CLR,,0.00,WeatherDisplay:10.37,2013-09-05 02:20:00,
2013-09-04 21:25:00,71.7,63.0,30.13,SSE,159,2.0,2.0,74,0.00,CLR,,0.00,WeatherDisplay:10.37,2013-09-05 02:25:00,
2013-09-04 21:30:00,71.6,62.9,30.12,SSE,159,2.3,2.3,74,0.00,CLR,,0.00,WeatherDisplay:10.37,2013-09-05 02:30:00,
2013-09-04 21:35:00,71.4,62.7,30.12,SSE,159,2.3,2.3,74,0.00,CLR,,0.00,WeatherDisplay:10.37,2013-09-05 02:35:00,
2013-09-04 21:40:00,71.2,62.9,30.12,SSE,159,0.0,0.0,75,0.00,CLR,,0.00,WeatherDisplay:10.37,2013-09-05 02:40:00,
2013-09-04 21:45:00,71.0,62.7,30.13,SSE,159,1.2,1.2,75,0.00,CLR,,0.00,WeatherDisplay:10.37,2013-09-05 02:45:00,
2013-09-04 21:50:00,70.8,62.9,30.13,SSE,159,0.0,0.0,76,0.00,CLR,,0.00,WeatherDisplay:10.37,2013-09-05 02:50:00,
2013-09-04 21:55:00,70.7,62.8,30.13,SSE,159,1.2,1.2,76,0.00,CLR,,0.00,WeatherDisplay:10.37,2013-09-05 02:55:00,
2013-09-04 22:00:00,70.6,62.7,30.14,SSE,159,1.0,0.0,76,0.00,CLR,,0.00,WeatherDisplay:10.37,2013-09-05 03:00:00,
2013-09-04 22:05:00,70.4,62.8,30.13,SSE,159,1.2,0.0,77,0.00,CLR,,0.00,WeatherDisplay:10.37,2013-09-05 03:05:00,
2013-09-04 22:10:00,70.1,62.9,30.14,SSE,159,0.0,0.0,78,0.00,CLR,,0.00,WeatherDisplay:10.37,2013-09-05 03:10:00,
2013-09-04 22:15:00,69.9,62.7,30.14,SSE,159,0.0,0.0,78,0.00,CLR,,0.00,WeatherDisplay:10.37,2013-09-05 03:15:00,
2013-09-04 22:20:00,69.7,62.5,30.14,SSE,159,1.2,1.2,78,0.00,CLR,,0.00,WeatherDisplay:10.37,2013-09-05 03:20:00,
2013-09-04 22:25:00,69.6,62.8,30.14,SSE,159,1.2,0.0,79,0.00,CLR,,0.00,WeatherDisplay:10.37,2013-09-05 03:25:00,
2013-09-04 22:30:00,69.4,62.6,30.15,SSE,159,1.2,1.2,79,0.00,CLR,,0.00,WeatherDisplay:10.37,2013-09-05 03:30:00,
2013-09-04 22:35:00,69.4,63.0,30.15,SSE,159,0.0,0.0,80,0.00,CLR,,0.00,WeatherDisplay:10.37,2013-09-05 03:35:00,
2013-09-04 22:40:00,69.3,62.9,30.15,SSE,159,0.0,0.0,80,0.00,CLR,,0.00,WeatherDisplay:10.37,2013-09-05 03:40:00,
2013-09-04 22:45:00,69.2,62.8,30.15,SSE,159,0.0,0.0,80,0.00,CLR,,0.00,WeatherDisplay:10.37,2013-09-05 03:45:00,
2013-09-04 22:50:00,69.0,62.9,30.15,SSE,159,1.2,0.0,81,0.00,CLR,,0.00,WeatherDisplay:10.37,2013-09-05 03:50:00,
2013-09-04 22:55:00,68.9,62.8,30.15,SSE,159,0.0,0.0,81,0.00,CLR,,0.00,WeatherDisplay:10.37,2013-09-05 03:55:00,
2013-09-04 23:00:00,68.6,62.5,30.15,SSE,159,0.0,0.0,81,0.00,CLR,,0.00,WeatherDisplay:10.37,2013-09-05 04:00:00,
2013-09-04 23:01:00,68.7,62.6,30.15,SSE,159,0.0,0.0,81,0.00,CLR,,0.00,WeatherDisplay:10.37,2013-09-05 04:01:00,
2013-09-04 23:02:00,68.6,62.5,30.15,SSE,159,0.0,0.0,81,0.00,CLR,,0.00,WeatherDisplay:10.37,2013-09-05 04:02:00,
2013-09-04 23:07:00,68.4,62.3,30.15,SSE,159,0.0,0.0,81,0.00,CLR,,0.00,WeatherDisplay:10.37,2013-09-05 04:07:00,
2013-09-04 23:12:00,68.2,62.5,30.15,SSE,159,0.0,0.0,82,0.00,CLR,,0.00,WeatherDisplay:10.37,2013-09-05 04:12:00,
2013-09-04 23:17:00,67.9,62.5,30.15,SSE,159,0.0,0.0,83,0.00,CLR,,0.00,WeatherDisplay:10.37,2013-09-05 04:17:00,
2013-09-04 23:22:00,67.6,62.3,30.15,SSE,159,0.0,0.0,83,0.00,CLR,,0.00,WeatherDisplay:10.37,2013-09-05 04:22:00,
2013-09-04 23:27:00,67.3,62.0,30.15,SSE,159,0.0,0.0,83,0.00,CLR,,0.00,WeatherDisplay:10.37,2013-09-05 04:27:00,
2013-09-04 23:32:00,67.0,62.0,30.14,SSE,159,0.0,0.0,84,0.00,CLR,,0.00,WeatherDisplay:10.37,2013-09-05 04:32:00,
2013-09-04 23:37:00,66.7,62.0,30.14,SSE,159,2.3,2.3,85,0.00,CLR,,0.00,WeatherDisplay:10.37,2013-09-05 04:37:00,
2013-09-04 23:42:00,66.6,61.9,30.14,SSE,159,1.2,1.2,85,0.00,CLR,,0.00,WeatherDisplay:10.37,2013-09-05 04:42:00,
2013-09-04 23:47:00,66.4,61.8,30.14,SSE,159,1.2,1.2,85,0.00,CLR,,0.00,WeatherDisplay:10.37,2013-09-05 04:47:00,
2013-09-04 23:52:00,66.3,62.0,30.14,SSE,159,1.2,1.2,86,0.00,CLR,,0.00,WeatherDisplay:10.37,2013-09-05 04:52:00,
2013-09-04 23:57:00,66.3,62.0,30.14,SSE,159,1.2,1.2,86,0.00,CLR,,0.00,WeatherDisplay:10.37,2013-09-05 04:57:00,